Home   Weather   Marengo   Past weeks

Flag for USA Past Weather in Marengo, Indiana, USA — Yesterday and Last 2 Weeks

Now
62 °F

Clear.


Feels Like: 62 °F
Forecast: 51 / 65 °F
Wind: 3 mph from Northwest

Location: Bowling Green-Warren County Regional Airport

Current Time: Sep 29, 2016 at 7:52:43 PM

Latest Report: Sep 29, 2016 at 6:53 PM


Visibility: 10 mi

Pressure: 30.09 "Hg

Humidity: 70%

Dew Point: 52 °F

Location of MarengoLocation

Past Weather in Marengo — Graph

°F

Marengo Temperature Yesterday

Maximum temperature yesterday: 82 °F (at 1:53 PM)
Minimum temperature yesterday: 53 °F (at 3:53 AM)
Average temperature yesterday: 63 °F

High & Low Weather Summary for the Past Weeks

 TemperatureHumidityPressure
High94 °F (Sep 16, 3:53 PM)97% (Sep 20, 1:58 AM)30.16 "Hg (Sep 20, 1:58 AM)
Low48 °F (Sep 27, 6:53 AM)26% (Sep 27, 4:53 PM)29.80 "Hg (Sep 28, 1:53 PM)
Average73 °F74%30.04 "Hg
* Reported Sep 14 5:53 PM — Sep 29 5:53 PM, Marengo, Weather by CustomWeather, © 2016

Note: Actual official high and low records may vary slightly from our data, if they occured in-between our weather recording intervals... More about our weather records

Advertising

Marengo Weather History for the Previous 24 Hours

Scroll right to see more
 ConditionsComfort  
Time TempWeatherWind HumidityBarometerVisibility
5:53 PM
Thu, Sep 29
62 °FOvercast.6 mph65%30.08 "Hg10 mi
4:53 PM63 °FOvercast.9 mph68%30.07 "Hg10 mi
3:53 PM64 °FPartly sunny.6 mph63%30.07 "Hg10 mi
2:53 PM64 °FOvercast.5 mph63%30.07 "Hg10 mi
1:53 PM62 °FMostly cloudy.3 mph67%30.08 "Hg10 mi
12:53 PM60 °FCloudy.No wind72%30.09 "Hg10 mi
11:53 AM59 °FOvercast.3 mph78%30.10 "Hg10 mi
10:53 AM57 °FOvercast.No wind81%30.08 "Hg10 mi
9:53 AM55 °FMore clouds than sun.6 mph87%30.06 "Hg10 mi
8:53 AM53 °FSunny.6 mph86%30.05 "Hg10 mi
7:53 AM49 °FSunny.No wind86%30.04 "Hg10 mi
6:53 AM49 °FSunny.3 mph90%30.03 "Hg10 mi
5:53 AM50 °FClear.No wind86%30.02 "Hg10 mi
4:53 AM51 °FClear.3 mph86%30.02 "Hg10 mi
3:53 AM51 °FClear.3 mph83%30.02 "Hg10 mi
2:53 AM51 °FPassing clouds.5 mph86%30.01 "Hg10 mi
1:53 AM51 °FClear.3 mph86%30.01 "Hg10 mi
12:53 AM54 °FClear.5 mph77%30.02 "Hg10 mi
11:53 PM
Wed, Sep 28
56 °FClear.5 mph75%30.03 "Hg10 mi
10:53 PM58 °FPassing clouds.6 mph70%30.02 "Hg10 mi
9:53 PM60 °FPassing clouds.6 mph69%30.01 "Hg10 mi
8:53 PM62 °FClear.5 mph73%29.98 "Hg10 mi
7:53 PM63 °FClear.3 mph87%29.94 "Hg10 mi
Weather by CustomWeather, © 2016

See weather overviewHow to use our weather pages